Photometre #852[NE_1.6_Dp] Lerwick_MO AOT

File : 20220826_852.hum

26/08/2022,05:58:28,TEMP=18.2,BA=5.52,STAT.b=8.0
26/08/2022,06:11:33,TEMP=18.2,BA=5.44,STAT.b=8.0
26/08/2022,06:11:59,TEMP=18.2,BA=5.44,STAT.b=8.0
26/08/2022,06:25:04,TEMP=18.2,BA=5.44,STAT.b=8.0
26/08/2022,06:25:31,TEMP=18.2,BA=5.44,STAT.b=8.0
26/08/2022,06:38:35,TEMP=18.2,BA=5.44,STAT.b=8.0
26/08/2022,06:39:15,TEMP=18.2,BA=5.44,STAT.b=8.0
26/08/2022,06:42:15,TEMP=18.2,BA=5.52,STAT.b=8.0
26/08/2022,06:45:15,TEMP=18.2,BA=5.52,STAT.b=8.0
26/08/2022,06:48:15,TEMP=18.2,BA=5.52,STAT.b=8.0
26/08/2022,06:48:53,TEMP=18.2,BA=5.52,STAT.b=8.0
26/08/2022,06:51:15,TEMP=18.2,BA=5.52,STAT.b=8.0
26/08/2022,06:54:15,TEMP=18.2,BA=5.52,STAT.b=8.0
26/08/2022,06:55:10,TEMP=18.2,BA=5.52,STAT.b=8.0
26/08/2022,07:08:14,TEMP=18.2,BA=5.44,STAT.b=8.0
26/08/2022,07:09:15,TEMP=18.2,BA=5.44,STAT.b=8.0
26/08/2022,07:10:07,TEMP=18.2,BA=5.48,STAT.b=8.0
26/08/2022,07:23:11,TEMP=18.2,BA=5.44,STAT.b=8.0
26/08/2022,07:24:15,TEMP=18.2,BA=5.44,STAT.b=8.0
26/08/2022,07:27:15,TEMP=18.2,BA=5.44,STAT.b=8.0
26/08/2022,07:29:27,TEMP=18.2,BA=5.44,STAT.b=8.0
26/08/2022,07:30:15,TEMP=18.2,BA=5.52,STAT.b=8.0
26/08/2022,07:33:15,TEMP=18.2,BA=5.52,STAT.b=8.0
26/08/2022,07:36:15,TEMP=18.2,BA=5.52,STAT.b=8.0
26/08/2022,07:39:15,TEMP=18.2,BA=5.52,STAT.b=8.0
26/08/2022,07:41:29,TEMP=18.2,BA=5.52,STAT.b=8.0
26/08/2022,07:59:08,TEMP=18.2,BA=5.44,STAT.b=8.0
26/08/2022,08:12:15,TEMP=18.2,BA=5.44,STAT.b=8.0
26/08/2022,08:12:56,TEMP=18.2,BA=5.44,STAT.b=8.0
26/08/2022,08:28:26,TEMP=14.4,BA=5.44,STAT.D,ExtBa=12.40
26/08/2022,08:30:00,TEMP=14.8,BA=5.44,STAT.b=8.0
26/08/2022,08:34:24,TEMP=14.8,BA=5.44,STAT.b=8.0
26/08/2022,08:52:09,TEMP=14.5,BA=5.44,STAT.D,ExtBa=12.40
26/08/2022,08:53:43,TEMP=14.9,BA=5.44,STAT.b=8.0
26/08/2022,09:02:20,TEMP=14.9,BA=5.52,STAT.b=8.0
26/08/2022,09:03:15,TEMP=14.9,BA=5.52,STAT.b=8.0
26/08/2022,09:06:15,TEMP=14.9,BA=5.52,STAT.b=8.0
26/08/2022,09:07:10,TEMP=14.9,BA=5.52,STAT.b=8.0
26/08/2022,09:09:15,TEMP=14.9,BA=5.52,STAT.b=8.0
26/08/2022,09:12:15,TEMP=14.9,BA=5.52,STAT.b=8.0
26/08/2022,09:15:15,TEMP=14.9,BA=5.52,STAT.b=8.0
26/08/2022,09:18:15,TEMP=14.9,BA=5.52,STAT.b=8.0
26/08/2022,09:21:15,TEMP=14.9,BA=5.52,STAT.b=8.0
26/08/2022,09:22:09,TEMP=14.9,BA=5.52,STAT.b=8.0
26/08/2022,09:36:15,TEMP=14.9,BA=5.44,STAT.b=8.0
26/08/2022,09:37:09,TEMP=14.9,BA=5.44,STAT.b=8.0
26/08/2022,09:52:40,TEMP=15.2,BA=5.44,STAT.D,ExtBa=12.40
26/08/2022,09:54:14,TEMP=15.6,BA=5.44,STAT.b=8.0
26/08/2022,09:54:37,TEMP=15.7,BA=5.44,STAT.D,ExtBa=12.30
26/08/2022,09:56:11,TEMP=15.8,BA=5.44,STAT.b=8.0
26/08/2022,10:09:16,TEMP=15.8,BA=5.44,STAT.b=8.0
26/08/2022,10:12:15,TEMP=15.8,BA=5.52,STAT.b=8.0
26/08/2022,10:15:15,TEMP=15.8,BA=5.52,STAT.b=8.0
26/08/2022,10:18:15,TEMP=15.8,BA=5.52,STAT.b=8.0
26/08/2022,10:21:15,TEMP=15.8,BA=5.52,STAT.b=8.0
26/08/2022,10:22:09,TEMP=15.8,BA=5.52,STAT.b=8.0
26/08/2022,10:39:45,TEMP=15.8,BA=5.44,STAT.D,ExtBa=12.30
26/08/2022,10:41:19,TEMP=16.2,BA=5.44,STAT.b=8.0
26/08/2022,10:41:34,TEMP=16.2,BA=5.44,STAT.b=8.0
26/08/2022,10:54:39,TEMP=16.2,BA=5.44,STAT.b=8.0
26/08/2022,10:57:15,TEMP=16.2,BA=5.44,STAT.b=8.0
26/08/2022,11:00:15,TEMP=16.2,BA=5.52,STAT.b=8.0
26/08/2022,11:03:15,TEMP=16.2,BA=5.52,STAT.b=8.0
26/08/2022,11:06:15,TEMP=16.2,BA=5.52,STAT.b=8.0
26/08/2022,11:07:10,TEMP=16.2,BA=5.52,STAT.b=8.0
26/08/2022,11:09:15,TEMP=16.2,BA=5.52,STAT.b=8.0
26/08/2022,11:12:15,TEMP=16.2,BA=5.52,STAT.b=8.0
26/08/2022,11:15:15,TEMP=16.2,BA=5.52,STAT.b=8.0
26/08/2022,11:18:15,TEMP=16.2,BA=5.52,STAT.b=8.0
26/08/2022,11:21:15,TEMP=16.2,BA=5.52,STAT.b=8.0
26/08/2022,11:22:09,TEMP=16.2,BA=5.52,STAT.b=8.0
26/08/2022,11:36:15,TEMP=16.2,BA=5.44,STAT.b=8.0
26/08/2022,11:37:09,TEMP=16.2,BA=5.44,STAT.b=8.0
26/08/2022,11:51:15,TEMP=16.2,BA=5.44,STAT.b=8.0
26/08/2022,11:52:09,TEMP=16.2,BA=5.44,STAT.b=8.0
26/08/2022,12:09:50,TEMP=15.7,BA=5.40,STAT.D,ExtBa=12.40
26/08/2022,12:11:22,TEMP=16.0,BA=5.40,STAT.b=8.0
26/08/2022,12:11:39,TEMP=16.0,BA=5.40,STAT.b=8.0
26/08/2022,12:21:15,TEMP=16.0,BA=5.52,STAT.b=8.0
26/08/2022,12:22:09,TEMP=16.0,BA=5.52,STAT.b=8.0
26/08/2022,12:36:15,TEMP=16.0,BA=5.44,STAT.b=8.0
26/08/2022,12:37:09,TEMP=16.0,BA=5.44,STAT.b=8.0
26/08/2022,12:54:45,TEMP=15.6,BA=5.44,STAT.D,ExtBa=12.40
26/08/2022,12:56:19,TEMP=16.0,BA=5.44,STAT.b=8.0
26/08/2022,12:56:42,TEMP=16.1,BA=5.44,STAT.D,ExtBa=12.30
26/08/2022,12:58:15,TEMP=16.3,BA=5.44,STAT.b=8.0
26/08/2022,13:11:20,TEMP=16.3,BA=5.40,STAT.b=8.0
26/08/2022,13:12:15,TEMP=16.3,BA=5.40,STAT.b=8.0
26/08/2022,13:15:15,TEMP=16.3,BA=5.40,STAT.b=8.0
26/08/2022,13:18:15,TEMP=16.3,BA=5.40,STAT.b=8.0
26/08/2022,13:21:15,TEMP=16.3,BA=5.52,STAT.b=8.0
26/08/2022,13:22:09,TEMP=16.3,BA=5.52,STAT.b=8.0
26/08/2022,13:36:15,TEMP=16.3,BA=5.44,STAT.b=8.0
26/08/2022,13:37:09,TEMP=16.3,BA=5.44,STAT.b=8.0
26/08/2022,13:51:15,TEMP=16.3,BA=5.44,STAT.b=8.0
26/08/2022,13:52:09,TEMP=16.3,BA=5.44,STAT.b=8.0
26/08/2022,14:06:15,TEMP=16.3,BA=5.44,STAT.b=8.0
26/08/2022,14:07:10,TEMP=16.3,BA=5.44,STAT.b=8.0
26/08/2022,14:09:15,TEMP=16.3,BA=5.44,STAT.b=8.0
26/08/2022,14:12:15,TEMP=16.3,BA=5.52,STAT.b=8.0
26/08/2022,14:15:15,TEMP=16.3,BA=5.52,STAT.b=8.0
26/08/2022,14:18:15,TEMP=16.3,BA=5.52,STAT.b=8.0
26/08/2022,14:21:15,TEMP=16.3,BA=5.52,STAT.b=8.0
26/08/2022,14:22:09,TEMP=16.3,BA=5.52,STAT.b=8.0
26/08/2022,14:36:15,TEMP=16.3,BA=5.44,STAT.b=8.0
26/08/2022,14:37:09,TEMP=16.3,BA=5.44,STAT.b=8.0
26/08/2022,14:51:15,TEMP=16.3,BA=5.44,STAT.b=8.0
26/08/2022,14:52:09,TEMP=16.3,BA=5.44,STAT.b=8.0
26/08/2022,15:09:40,TEMP=14.9,BA=5.44,STAT.D,ExtBa=12.40
26/08/2022,15:11:14,TEMP=15.3,BA=5.44,STAT.b=8.0
26/08/2022,15:11:31,TEMP=15.3,BA=5.44,STAT.b=8.0
26/08/2022,15:12:01,TEMP=15.3,BA=5.44,STAT.b=8.0
26/08/2022,15:15:15,TEMP=15.3,BA=5.44,STAT.b=8.0
26/08/2022,15:18:15,TEMP=15.3,BA=5.44,STAT.b=8.0
26/08/2022,15:21:15,TEMP=15.3,BA=5.52,STAT.b=8.0
26/08/2022,15:24:15,TEMP=15.3,BA=5.52,STAT.b=8.0
26/08/2022,15:27:15,TEMP=15.3,BA=5.52,STAT.b=8.0
26/08/2022,15:30:15,TEMP=15.3,BA=5.52,STAT.b=8.0
26/08/2022,15:33:15,TEMP=15.3,BA=5.52,STAT.b=8.0
26/08/2022,15:36:15,TEMP=15.3,BA=5.52,STAT.b=8.0
26/08/2022,15:39:15,TEMP=15.3,BA=5.52,STAT.b=8.0
26/08/2022,15:39:57,TEMP=15.3,BA=5.52,STAT.b=8.0
26/08/2022,15:54:15,TEMP=15.3,BA=5.44,STAT.b=8.0
26/08/2022,15:57:15,TEMP=15.3,BA=5.44,STAT.b=8.0
26/08/2022,16:00:15,TEMP=15.3,BA=5.52,STAT.b=8.0
26/08/2022,16:01:24,TEMP=15.3,BA=5.52,STAT.b=8.0
26/08/2022,16:18:53,TEMP=15.5,BA=5.44,STAT.D,ExtBa=12.30
26/08/2022,16:20:29,TEMP=15.9,BA=5.44,STAT.b=8.0
26/08/2022,16:20:46,TEMP=15.9,BA=5.44,STAT.b=8.0
26/08/2022,16:33:50,TEMP=15.9,BA=5.44,STAT.b=8.0
26/08/2022,16:36:15,TEMP=15.9,BA=5.44,STAT.b=8.0
26/08/2022,16:39:15,TEMP=15.9,BA=5.44,STAT.b=8.0
26/08/2022,16:42:15,TEMP=15.9,BA=5.52,STAT.b=8.0
26/08/2022,16:44:53,TEMP=15.9,BA=5.52,STAT.b=8.0
26/08/2022,16:45:15,TEMP=15.9,BA=5.52,STAT.b=8.0
26/08/2022,16:48:15,TEMP=15.9,BA=5.52,STAT.b=8.0
26/08/2022,16:51:15,TEMP=15.9,BA=5.52,STAT.b=8.0
26/08/2022,16:54:15,TEMP=15.9,BA=5.52,STAT.b=8.0
26/08/2022,16:55:14,TEMP=15.9,BA=5.52,STAT.b=8.0
26/08/2022,17:08:18,TEMP=15.9,BA=5.44,STAT.b=8.0
26/08/2022,17:09:15,TEMP=15.9,BA=5.44,STAT.b=8.0
26/08/2022,17:12:08,TEMP=15.9,BA=5.52,STAT.b=8.0
26/08/2022,17:25:12,TEMP=15.9,BA=5.44,STAT.b=8.0
26/08/2022,17:25:38,TEMP=15.9,BA=5.44,STAT.b=8.0
26/08/2022,17:27:15,TEMP=15.9,BA=5.44,STAT.b=8.0
26/08/2022,17:30:15,TEMP=15.9,BA=5.52,STAT.b=8.0
26/08/2022,17:33:15,TEMP=15.9,BA=5.52,STAT.b=8.0
26/08/2022,17:36:15,TEMP=15.9,BA=5.52,STAT.b=8.0
26/08/2022,17:38:37,TEMP=15.9,BA=5.52,STAT.b=8.0
26/08/2022,17:51:41,TEMP=15.9,BA=5.44,STAT.b=8.0
26/08/2022,17:54:15,TEMP=15.9,BA=5.44,STAT.b=8.0
26/08/2022,17:57:15,TEMP=15.9,BA=5.44,STAT.b=8.0
26/08/2022,17:57:37,TEMP=15.9,BA=5.44,STAT.b=8.0
26/08/2022,18:10:41,TEMP=15.9,BA=5.44,STAT.b=8.0
26/08/2022,18:11:07,TEMP=15.9,BA=5.44,STAT.b=8.0
26/08/2022,18:24:11,TEMP=15.9,BA=5.44,STAT.b=8.0